Stanton, MN

4:29 AM CDT on May 28, 2017 (GMT -0500)
Stanton

Weather History for KSYN - December, 2012

Change the Weather History Date:

Thursday, December 6, 2012

  Actual Average (KLVN) Record (KLVN)
Temperature  
Mean Temperature 38 °F -  
Max Temperature 45 °F 28 °F 44 °F (2001)
Min Temperature 31 °F 10 °F -20 °F (1972)
Degree Days  
Heating Degree Days 26    
Moisture  
Dew Point 31 °F    
Average Humidity 70    
Maximum Humidity 85    
Minimum Humidity 55    
Precipitation  
Precipitation 0.04 in - - ()
Sea Level Pressure  
Sea Level Pressure 29.86 in    
Wind  
Wind Speed 15 mph (WSW)    
Max Wind Speed 24 mph    
Max Gust Speed 34 mph    
Visibility 10 miles    
Events Rain    
Averages and records for this station are not official NWS values.
T = Trace of Precipitation, MM = Missing Value Source: NWS Daily Summary

Daily Weather History Graph

Daily Weather History Graph

Search for Another Location

Airport or City:

Trip Planner

Search our weather history database for the weather conditions in past years. The results will help you decide how hot, cold, wet, or windy it might be!

Date:

Astronomy

Dec. 06, 2012 Rise Set
Actual Time 7:34 AM CST 4:32 PM CST
Civil Twilight 7:01 AM CST 5:05 PM CST
Nautical Twilight 6:24 AM CST 5:42 PM CST
Astronomical Twilight 5:49 AM CST 6:17 PM CST
Moon No Moon Rise 12:13 PM CST (12/6)
Length of Visible Light 10h 04m
Length of Day
8h 58m
Waning Gibbous, 49% of the Moon is Illuminated
Dec 6
Waning Gibbous
Dec 13
New
Dec 19
First Quarter
Dec 28
Full
Jan 4
Last Quarter

Hourly Weather History & Observations

Time (CST) Temp. Windchill Dew Point Humidity Pressure Visibility Wind Dir Wind Speed Gust Speed Precip Events Conditions
12:12 AM 41.0 °F 31.4 °F 25.7 °F 55% 29.87 in 10.0 mi South 21.9 mph 31.1 mph N/A   Clear
12:32 AM 41.0 °F 31.1 °F 26.1 °F 55% 29.85 in 10.0 mi South 23.0 mph 28.8 mph N/A   Clear
12:53 AM 41.0 °F 31.1 °F 26.6 °F 57% 29.84 in 10.0 mi South 23.0 mph 34.5 mph N/A   Clear
1:12 AM 41.4 °F 31.4 °F 27.1 °F 57% 29.83 in 10.0 mi South 24.2 mph 34.5 mph N/A   Scattered Clouds
1:32 AM 42.1 °F 32.6 °F 27.9 °F 57% 29.82 in 10.0 mi South 23.0 mph 31.1 mph N/A   Scattered Clouds
1:52 AM 42.3 °F 33.3 °F 28.4 °F 58% 29.82 in 10.0 mi South 20.7 mph 33.4 mph N/A   Scattered Clouds
2:13 AM 42.4 °F 33.8 °F 28.6 °F 58% 29.83 in 10.0 mi South 19.6 mph 27.6 mph N/A   Scattered Clouds
2:32 AM 42.3 °F 35.5 °F 29.7 °F 61% 29.83 in 10.0 mi South 12.7 mph 24.2 mph N/A   Light Drizzle
2:52 AM 42.8 °F 35.1 °F 30.4 °F 62% 29.83 in 10.0 mi South 16.1 mph 26.5 mph N/A Rain Light Rain
3:12 AM 43.0 °F 36.0 °F 31.1 °F 63% 29.83 in 10.0 mi South 13.8 mph 23.0 mph N/A   Light Drizzle
3:33 AM 43.2 °F 36.2 °F 32.5 °F 66% 29.82 in 10.0 mi South 13.8 mph 21.9 mph N/A   Drizzle
3:52 AM 42.1 °F 34.9 °F 34.2 °F 74% 29.81 in 10.0 mi South 13.8 mph 19.6 mph N/A Rain Light Rain
4:12 AM 41.7 °F 34.8 °F 34.7 °F 76% 29.81 in 10.0 mi South 12.7 mph 21.9 mph N/A Rain Light Rain
4:33 AM 41.7 °F 34.8 °F 35.1 °F 77% 29.81 in 10.0 mi South 12.7 mph 18.4 mph N/A   Light Drizzle
4:52 AM 41.7 °F 35.2 °F 35.1 °F 77% 29.82 in 10.0 mi South 11.5 mph 19.6 mph N/A Rain Light Rain
5:12 AM 41.4 °F 34.7 °F 35.6 °F 80% 29.81 in 10.0 mi South 11.5 mph - N/A   Drizzle
5:33 AM 41.4 °F 34.7 °F 35.6 °F 80% 29.81 in 10.0 mi South 11.5 mph 16.1 mph N/A Rain Light Rain
5:52 AM 41.5 °F 35.4 °F 36.0 °F 81% 29.81 in 10.0 mi South 10.4 mph 17.3 mph 0.01 in Rain Light Rain
6:12 AM 41.2 °F 34.1 °F 36.3 °F 83% 29.81 in 10.0 mi South 12.7 mph 16.1 mph N/A Rain Light Rain
6:33 AM 41.0 °F 34.3 °F 36.5 °F 84% 29.81 in 10.0 mi South 11.5 mph 16.1 mph 0.02 in Rain Light Rain
6:52 AM 41.2 °F 34.5 °F 36.9 °F 85% 29.81 in 10.0 mi South 11.5 mph 18.4 mph 0.02 in Rain Light Rain
7:12 AM 41.9 °F 34.3 °F 37.4 °F 84% 29.80 in 10.0 mi South 15.0 mph 20.7 mph 0.01 in Rain Light Rain
7:33 AM 42.4 °F 36.5 °F 37.9 °F 84% 29.80 in 10.0 mi SSW 10.4 mph 19.6 mph 0.01 in Rain Light Rain
7:52 AM 42.4 °F 35.7 °F 37.9 °F 84% 29.80 in 10.0 mi SSW 12.7 mph 16.1 mph 0.01 in   Clear
8:12 AM 42.4 °F 35.3 °F 37.8 °F 83% 29.80 in 10.0 mi SSW 13.8 mph 18.4 mph N/A   Clear
8:33 AM 42.3 °F 35.9 °F 37.8 °F 84% 29.80 in 10.0 mi SSW 11.5 mph 16.1 mph N/A   Clear
8:52 AM 42.8 °F 35.8 °F 37.8 °F 82% 29.81 in 10.0 mi SSW 13.8 mph 19.6 mph N/A   Clear
9:12 AM 42.8 °F 35.4 °F 37.9 °F 83% 29.81 in 10.0 mi SSW 15.0 mph - N/A   Mostly Cloudy
9:33 AM 43.2 °F 36.6 °F 38.1 °F 82% 29.81 in 10.0 mi SW 12.7 mph - N/A   Scattered Clouds
9:52 AM 43.7 °F 36.9 °F 37.8 °F 80% 29.82 in 10.0 mi SW 13.8 mph - N/A   Clear
10:12 AM 43.7 °F 37.7 °F 37.6 °F 79% 29.82 in 10.0 mi WSW 11.5 mph - N/A   Scattered Clouds
10:33 AM 44.2 °F 38.4 °F 36.7 °F 75% 29.83 in 10.0 mi West 11.5 mph - N/A   Scattered Clouds
10:52 AM 43.9 °F 36.8 °F 33.6 °F 67% 29.83 in 10.0 mi West 15.0 mph - N/A   Clear
11:12 AM 43.2 °F 37.4 °F 33.8 °F 70% 29.82 in 10.0 mi WNW 10.4 mph - N/A   Clear
11:32 AM 43.5 °F 37.9 °F 33.3 °F 67% 29.83 in 10.0 mi West 10.4 mph - N/A   Clear
11:53 AM 42.1 °F 35.7 °F 32.7 °F 69% 29.82 in 10.0 mi West 11.5 mph - N/A   Clear
12:12 PM 43.9 °F 37.9 °F 33.8 °F 68% 29.82 in 10.0 mi West 11.5 mph - N/A   Clear
12:32 PM 43.7 °F 36.9 °F 33.4 °F 67% 29.83 in 10.0 mi West 13.8 mph - N/A   Clear
12:53 PM 42.8 °F 36.2 °F 32.7 °F 68% 29.83 in 10.0 mi West 12.7 mph - N/A   Clear
1:12 PM 42.8 °F 36.6 °F 32.5 °F 67% 29.83 in 10.0 mi West 11.5 mph - N/A   Clear
1:32 PM 44.6 °F 38.8 °F 32.5 °F 63% 29.83 in 10.0 mi West 11.5 mph - N/A   Clear
1:52 PM 45.5 °F 38.9 °F 32.9 °F 61% 29.83 in 10.0 mi WNW 15.0 mph - N/A   Clear
2:12 PM 44.6 °F 38.1 °F 32.0 °F 61% 29.84 in 10.0 mi West 13.8 mph 21.9 mph N/A   Clear
2:33 PM 44.6 °F 37.4 °F 31.8 °F 61% 29.83 in 10.0 mi WNW 16.1 mph - N/A   Clear
2:52 PM 44.6 °F 38.1 °F 31.5 °F 60% 29.84 in 10.0 mi WNW 13.8 mph 19.6 mph N/A   Clear
3:12 PM 43.7 °F 37.7 °F 30.6 °F 60% 29.85 in 10.0 mi WNW 11.5 mph - N/A   Clear
3:32 PM 41.9 °F 35.9 °F 29.8 °F 62% 29.86 in 10.0 mi NW 10.4 mph - N/A   Clear
3:53 PM 40.1 °F 34.7 °F 30.2 °F 68% 29.87 in 10.0 mi West 8.1 mph - N/A   Clear
4:12 PM 39.7 °F 34.9 °F 29.3 °F 66% 29.88 in 10.0 mi WNW 6.9 mph - N/A   Clear
4:32 PM 37.8 °F 33.3 °F 29.1 °F 71% 29.89 in 10.0 mi West 5.8 mph - N/A   Clear
4:53 PM 36.9 °F 33.1 °F 28.6 °F 72% 29.89 in 10.0 mi West 4.6 mph - N/A   Clear
5:12 PM 37.9 °F 32.7 °F 29.1 °F 71% 29.90 in 10.0 mi West 6.9 mph - N/A   Clear
5:32 PM 39.2 °F 32.5 °F 28.6 °F 66% 29.90 in 10.0 mi West 10.4 mph - N/A   Clear
5:52 PM 38.8 °F 32.1 °F 27.9 °F 65% 29.90 in 10.0 mi West 10.4 mph - N/A   Clear
6:12 PM 38.3 °F 30.1 °F 27.3 °F 65% 29.91 in 10.0 mi WNW 13.8 mph - N/A   Clear
6:32 PM 37.9 °F 29.6 °F 27.3 °F 66% 29.91 in 10.0 mi WNW 13.8 mph - N/A   Clear
6:52 PM 37.6 °F 29.6 °F 27.1 °F 66% 29.92 in 10.0 mi WNW 12.7 mph - N/A   Clear
7:13 PM 37.4 °F 29.8 °F 26.6 °F 65% 29.92 in 10.0 mi WNW 11.5 mph - N/A   Clear
7:32 PM 36.9 °F 30.1 °F 26.6 °F 66% 29.93 in 10.0 mi WNW 9.2 mph - N/A   Clear
7:52 PM 36.1 °F 30.6 °F 26.6 °F 68% 29.93 in 10.0 mi WNW 6.9 mph - N/A   Clear
8:32 PM 35.6 °F 28.6 °F 24.8 °F 65% 29.94 in 10.0 mi NW 9.2 mph - N/A   Clear
8:52 PM 35.1 °F 27.9 °F 24.8 °F 66% 29.95 in 10.0 mi NW 9.2 mph - N/A   Clear
9:12 PM 34.3 °F 27.7 °F 24.8 °F 68% 29.95 in 10.0 mi WNW 8.1 mph - N/A   Clear
9:33 PM 33.8 °F 27.7 °F 25.3 °F 71% 29.96 in 10.0 mi WNW 6.9 mph - N/A   Clear
9:52 PM 33.8 °F 27.0 °F 25.2 °F 71% 29.95 in 10.0 mi WNW 8.1 mph - N/A   Clear
10:12 PM 33.3 °F 27.1 °F 25.0 °F 72% 29.97 in 10.0 mi WNW 6.9 mph - N/A   Clear
10:32 PM 33.1 °F 27.7 °F 25.0 °F 72% 29.97 in 10.0 mi WNW 5.8 mph - N/A   Clear
10:53 PM 32.5 °F 28.1 °F 24.6 °F 73% 29.97 in 10.0 mi NW 4.6 mph - N/A   Clear
11:12 PM 32.0 °F 25.6 °F 24.8 °F 75% 29.98 in 10.0 mi WNW 6.9 mph - N/A   Clear
11:32 PM 32.0 °F 27.5 °F 24.6 °F 74% 29.97 in 10.0 mi NW 4.6 mph - N/A   Clear
11:53 PM 31.8 °F 25.4 °F 24.6 °F 75% 29.97 in 10.0 mi NW 6.9 mph - N/A   Clear